Lid_Strength_Index
5 3 0 0 0 1 0 -1 -1 -1 -1 -1 -1 -0 -0 -0 1 -0 -0 0 0 0 0 -0 0 -0 -0 -0 0 0 1 1 -0 0 1 3 3 2 0 0 0 1 -2
5 4 1 1 1 0 0 0 -1 -1 -0 -1 -1 -1 -0 0 0 0 1 1 0 0 1 1 0 0 0 0 0 0 0 0 1 0 2 4 4 3 1 1 1 2 0
5 4 3 1 1 0 0 -1 -1 -0 -0 0 -0 -0 0 0 0 0 0 0 0 0 1 0 1 1 1 1 1 1 1 1 0 1 4 7 8 3 1 1 1 1 1
5 5 4 1 1 1 -0 -1 0 1 1 1 1 1 1 1 0 0 0 0 0 0 0 1 1 1 1 1 1 1 1 1 2 3 7 7 7 4 1 1 2 2 2
6 5 3 1 0 0 0 0 1 0 1 1 1 1 1 1 1 1 1 1 1 1 0 0 1 1 1 1 1 1 1 1 3 7 8 9 9 5 2 2 1 1 2
8 6 3 1 0 1 0 1 1 1 1 1 1 1 2 1 1 1 1 1 1 1 1 1 1 1 1 1 1 1 1 2 6 10 10 9 9 3 2 2 2 1 1
9 7 6 2 1 1 1 1 1 1 1 2 1 1 0 0 0 0 0 0 0 1 1 1 1 1 1 1 2 2 2 2 8 10 10 10 10 2 2 2 2 1 1
9 9 8 3 3 2 2 2 2 2 1 1 1 1 1 1 1 1 1 -0 -0 -0 0 0 1 1 2 2 2 2 2 3 9 10 10 11 6 2 2 2 2 2 1
10 10 10 8 5 3 3 2 2 2 2 2 2 2 2 2 2 2 1 1 0 0 0 1 1 1 2 2 3 3 3 4 10 11 10 10 4 2 1 1 2 2 2
11 11 11 11 9 9 8 3 3 3 2 3 3 3 3 4 3 3 2 1 1 2 1 1 1 2 2 3 3 3 3 6 11 10 10 10 3 3 2 2 2 2 2
11 11 11 11 10 10 9 5 5 3 3 4 5 4 7 10 8 7 3 2 2 3 2 2 2 3 3 4 4 4 5 9 10 10 10 4 3 2 2 2 2 2 1
13 12 11 11 11 10 8 10 10 8 10 9 10 10 10 10 7 6 4 3 3 3 3 3 3 3 5 9 9 7 9 10 10 10 9 3 2 2 2 2 2 2 2
12 11 11 11 11 10 10 11 11 11 11 10 10 10 11 10 10 10 10 10 10 6 9 9 9 9 10 9 9 9 9 9 10 10 8 3 3 2 1 2 2 2 2
12 12 11 11 11 11 11 11 11 11 11 11 11 11 11 11 11 11 11 11 11 10 11 11 10 10 10 9 10 9 9 9 9 9 8 3 2 2 1 1 1 1 1
13 12 11 11 11 11 11 11 12 12 11 11 11 11 11 11 12 12 11 11 11 11 11 11 11 11 10 10 10 10 10 10 9 9 9 4 3 2 2 1 1 1 1
13 12 11 10 11 11 11 12 12 12 12 12 12 12 11 12 12 12 12 11 11 12 11 12 12 12 11 11 11 10 10 10 10 9 9 9 4 3 2 2 2 2 1
13 12 11 10 10 11 11 11 12 12 11 12 12 12 11 11 12 12 12 12 11 11 11 11 11 12 12 11 11 10 10 10 9 10 9 9 8 5 3 3 3 2 1
14 13 11 9 10 11 11 11 11 11 12 12 12 12 11 10 11 11 11 12 11 11 11 12 12 13 12 12 12 12 12 11 10 10 10 10 9 8 7 4 3 2 2
13 13 12 12 11 11 12 12 12 12 12 12 12 12 11 10 10 11 11 12 11 12 12 12 12 13 12 12 11 12 12 12 11 10 11 10 9 9 8 6 3 3 2
13 13 12 12 12 12 12 13 13 12 12 12 12 11 11 11 11 11 11 11 11 12 12 12 13 12 12 12 11 11 12 12 11 11 11 9 8 7 7 7 7 7 3
14 13 13 12 12 12 13 14 14 13 13 12 12 11 11 11 10 11 11 11 12 12 12 13 12 13 12 13 14 12 13 13 12 11 10 10 9 7 7 6 6 6 5
13 13 13 12 12 12 12 13 13 13 13 12 12 11 11 11 11 11 11 11 12 12 12 12 13 13 13 13 14 15 16 14 12 11 11 10 9 8 7 6 6 5 5
14 14 13 12 12 12 12 12 13 12 12 12 12 12 11 10 10 11 11 12 12 12 13 13 12 13 14 13 13 14 17 17 14 12 11 10 10 8 8 7 5 5 5
13 13 13 12 12 11 12 13 13 13 13 13 12 12 11 11 11 11 11 11 12 12 12 12 10 12 13 13 13 12 12 13 15 15 12 11 10 8 8 7 6 6 5
12 13 12 12 12 11 12 12 13 14 13 13 13 12 12 12 11 11 11 12 12 12 12 12 11 12 12 13 14 14 13 13 13 14 14 11 9 8 8 7 7 6 5
13 13 13 13 12 12 12 13 13 14 14 13 13 13 13 12 12 12 11 12 12 12 12 11 11 12 11 12 13 14 13 13 13 13 14 12 10 8 7 6 7 6 5